Погода в Рыбинске

Хотите узнать прогноз погоды в Рыбинске? Тогда Вам сюда: Погода в Рыбинске

Поиск расширенной информации на нашем сайте:

Полезная информация:

Новости сайта



02.01.2020
Опубликован Долгосрочный прогноз погоды по городам России и ближнего зарубежья на январь 2020 года.
Карты: Прогноз на январь и февраль 2020 года, Сравнение прогнозируемой аномалии приземной температуры воздуха на январь 2020 года по разным моделям.




Погода в Рыбинске - сегодня

Время (UTC), дата Ветер
(°,м/с) 
Видим.   Явления Облачность Т
(°С)
Тd
(°С)
f(%) Тe
(°С)
Pmin
(гПа)
dP
(гПа)
Po
(мм)
O2
(г/м3)
Тmin Tmax R s Состояние
почвы
00 16.01.22 310 (СЗ) 4{12}  10 км  {снег}  8/8 300 м 
[Sc]
-4.4 -4.4 100 -8  1002  2.6  741  304           
03 16.01.22 320 (СЗ) 4{10}  4000 м  слаб. снег  10/10 2000 м 
[Ns]
-4.1 -6.1 86 -7  1003.2  1.3  742  304  -4.6    0.5  44  равномерный
сухой снег
100% 
06 16.01.22 320 (СЗ) 4{10}  10 км  {снег}  10/10 300 м 
[Sc]
-5.1 -9.7 70 -8  1005.7  2.4  744  307  -5.9         
09 16.01.22 310 (СЗ) 10 км    10/10 300 м 
[Sc]
-5.6 -8.2 82 -7  1006.1  0.4  745  307           
12 16.01.22 250 (З) 10 км    10/10 300 м 
[Sc]
-4.2 -8.1 74 -4  1004.4  -1.6  743  305           
15 16.01.22 240 (ЮЗ) 10 км    10/10 2000 м 
[Ns]
-4.1 -7.2 79 -5  1002.4  -2  742  304    -4.1  0.0     
18 16.01.22 240 (ЮЗ) 10 км    10/10 2000 м 
[Ns]
-4 -7.4 77 -5  998.6  -3.7  739  303           
21 16.01.22 240 (ЮЗ) 10 км    10/10 300 м 
[Sc]
-4 -5.6 89 -4  995.4  -3.1  737  302           
00 17.01.22 220 (ЮЗ) 10 км    10/10 300 м 
[Sc]
-3.2 -4 94 -3  991.5  -3.9  734  300           
03 17.01.22 210 (ЮЗ) 10 км    10/10 300 м 
[Sc]
-3 -3 100 -6  987.7  -3.7  731  298  -4.5      44  равномерный
сухой снег
100% 
06 17.01.22 190 (Ю) 4000 м  слаб. снег  10/10 2000 м 
[Ns]
-2.8 -2.8 100 -2  984.4  -3.1  729  297           
09 17.01.22 180 (Ю) 1000 м  сильн. снег  10/10 300 м 
[Frnb|Ns]
-2.7 -2.7 100 -2  983.5  -0.9  728  297           
12 17.01.22 190 (Ю) 4000 м  слаб. снег  10/10 300 м 
[Frnb|Ns]
-3.2 -3.2 100 -4  982.9  -0.7  727  297           
15 17.01.22 180 (Ю) 4000 м  слаб. снег  10/10 2000 м 
[Ns]
-3.9 -3.9 100 -3  982.9  727  298    -2.7     
18 17.01.22 130 (ЮВ) 4000 м  слаб. снег  10/0 средняя 
[As op]
-4.4 -4.4 100 -4  984.2  1.1  728  299           
21 17.01.22 тихо ()   4000 м  снег  10/10 300 м 
[Frnb|Ns]
-4 -4 100 -4  986.1  1.8  730  299           
00 18.01.22 330 (СЗ) 4000 м  снег  10/10 300 м 
[Frnb|Ns]
-3.7 -3.7 100 -5  989.6  3.5  732  300           
03 18.01.22 340 (С) 5{10}  4000 м  слаб. снег  10/10 300 м 
[Frnb|Ns]
-4.6 -7.9 78 -8  994.2  4.6  736  302  -4.6    46  равномерный
сухой снег
100% 
06 18.01.22 330 (СЗ) 3{10}  10 км  {снег}  10/10 300 м 
[Sc]
-7.3 -8.2 93 -10  999.4  4.9  740  307  -7.3         
09 18.01.22 310 (СЗ) 4000 м  снег  10/10 300 м 
[Frnb|Ns]
-6.6 +6.9 100 -9  1003.2  3.8  742  305           
12 18.01.22 310 (СЗ) 10 км  {снег}  10/0 средняя 
[As op]
-7.1 -8.5 90 -11  1006.5  3.2  745  309           
15 18.01.22 310 (СЗ) 4{10}  10 км  {снег}  10/10 2000 м 
[Ns]
-8.6 -10.5 86 -12  1010.2  3.6  747  312    -4.6  0.3     
18 18.01.22 310 (СЗ) 3{10}  10 км  {снег}  8/8 2000 м средняя 
[As trans]
-10.9 -11.7 94 -14  1012.4  749  315           
21 18.01.22 310 (СЗ) 10 км    ясно 
-11.6 -12 97 -15  1014.3  1.9  750  317           
00 19.01.22 тихо ()   10 км    ясно 
-13.5 -13.6 99 -14  1014.9  0.4  751  319           
Время (UTC), дата Ветер
(°,м/с) 
Видим.   Явления Облачность Т
(°С)
Тd
(°С)
f(%) Тe
(°С)
Pmin
(гПа)
dP
(гПа)
Po
(мм)
O2
(г/м3)
Тmin Tmax R s Состояние
почвы

Для получения пояснительной информации подведите курсор к названию столбца.

ПОГОДА в Рыбинске - архив

Всё, что Вы хотите узнать о погоде в Рыбинске - удобно и подробно!

Выберите нужную дату (начиная с 1 января 2019* года) и нажмите кнопку "Найти".
Будут отображены архивные сводки погоды по пункту Рыбинск, начиная с указанной даты.


Отображать данные в формате CSV (для использования в таблицах Excel)


Внимание! Наш архив погоды предназначен исключительно для личного некоммерческого использования в познавательных целях. Если Вам необходимы официальные справки о состоянии погоды (для производственных, юридических, коммерческих и т.п. целей), обращайтесь в органы Росгидромета.

*Примечание: данная дата относится к архиву по метеостанциям СССР (Россия, СНГ, Балтия).
Архив по метеостанциям Зарубежной Европы и Азии (кроме Китая) хранится 10 дней, по другим регионам земного шара (Китай, Африка, Америка, Австралия, Океания) - 1 день.

Рыбинск - район местоположения метеостанции


Название, широта, долгота, высота метеостанции:
Рыбинск 58.1°ш. 38.7°д. 105 м над ур. моря [Российская Федерация]

Дополнительная информация

В oтличие oт бoльшинства пoгoдных сайтoв мы публикуем пoдрoбную метеoинфoрмацию в детальнoм прoфессиoнальнoм фoрмате.

Характеристики температуры и влажнoсти вoздуха измеряются на высoте 2 м в тени вдали oт зданий и деревьев.
Скoрoсть ветра измеряется на высoте 10 м (на урoвне рoста челoвека скoрoсть ветра ниже в 1.5-2 раза). Если метеoстанция нахoдится в гoрoде или в лесу, тo скoрoсть ветра занижена на 2-4 м/с пo сравнению с oткрытым местoм. Скoрoсть ветра над акватoриями крупных рек и oзёр, а также на вершинах хoлмoв на 2-5 м/с выше, чем в oбычных услoвиях.
Атмoсфернoе давление в разных тoчках местнoсти мoжет значительнo oтличаться oт давления на метеoстанции, в зависимoсти oт услoвий рельефа (при пoдъёме на 10 м давление пoнижается примернo на 1 мм рт.ст.).